Wetterdaten: Samstag, 11.07.2015
Datum Zeit Temp. A. Feuchte A. Luftdruck Regen Wind Richtung Richtung Sonnenschein ET UV Solar Taupunkt Windchill Windben Empfang
11.07.2015 00:00 12,6 C 78 % 1020,1 hPa 0,0 l/m 0,0 km/h (0 Bft) NO 42 0 min 0,000 mm 0,0 UV-I 0 W/m 8,9 C 12,6 C 0,0 km/h (0 Bft) 0,00 %
11.07.2015 00:05 12,4 C 79 % 1019,9 hPa 0,0 l/m 0,0 km/h (0 Bft) NO 36 0 min 0,000 mm 0,0 UV-I 0 W/m 8,9 C 12,4 C 0,0 km/h (0 Bft) 0,00 %
11.07.2015 00:10 12,3 C 80 % 1020,1 hPa 0,0 l/m 0,0 km/h (0 Bft) NO 44 0 min 0,000 mm 0,0 UV-I 0 W/m 8,9 C 12,3 C 0,0 km/h (0 Bft) 0,00 %
11.07.2015 00:15 12,2 C 80 % 1019,9 hPa 0,0 l/m 0,0 km/h (0 Bft) NO 47 0 min 0,000 mm 0,0 UV-I 0 W/m 8,9 C 12,2 C 0,0 km/h (0 Bft) 0,00 %
11.07.2015 00:20 12,1 C 80 % 1020,0 hPa 0,0 l/m 0,0 km/h (0 Bft) NO 48 0 min 0,000 mm 0,0 UV-I 0 W/m 8,8 C 12,1 C 0,0 km/h (0 Bft) 0,00 %
11.07.2015 00:25 12,1 C 80 % 1019,9 hPa 0,0 l/m 0,0 km/h (0 Bft) NO 44 0 min 0,000 mm 0,0 UV-I 0 W/m 8,8 C 12,1 C 0,0 km/h (0 Bft) 0,00 %
11.07.2015 00:30 12,0 C 81 % 1019,8 hPa 0,0 l/m 0,0 km/h (0 Bft) NO 43 0 min 0,000 mm 0,0 UV-I 0 W/m 8,8 C 12,0 C 0,0 km/h (0 Bft) 0,00 %
11.07.2015 00:35 11,9 C 80 % 1019,9 hPa 0,0 l/m 0,0 km/h (0 Bft) NO 44 0 min 0,000 mm 0,0 UV-I 0 W/m 8,6 C 11,9 C 0,0 km/h (0 Bft) 0,00 %
11.07.2015 00:40 11,9 C 80 % 1019,7 hPa 0,0 l/m 0,0 km/h (0 Bft) NO 42 0 min 0,000 mm 0,0 UV-I 0 W/m 8,6 C 11,9 C 0,0 km/h (0 Bft) 0,00 %
11.07.2015 00:45 11,8 C 81 % 1019,7 hPa 0,0 l/m 0,0 km/h (0 Bft) NO 42 0 min 0,000 mm 0,0 UV-I 0 W/m 8,6 C 11,8 C 0,0 km/h (0 Bft) 0,00 %
11.07.2015 00:50 11,7 C 81 % 1019,7 hPa 0,0 l/m 0,0 km/h (0 Bft) NO 47 0 min 0,000 mm 0,0 UV-I 0 W/m 8,5 C 11,7 C 0,0 km/h (0 Bft) 0,00 %
11.07.2015 00:55 11,6 C 81 % 1019,9 hPa 0,0 l/m 0,0 km/h (0 Bft) NO 47 0 min 0,000 mm 0,0 UV-I 0 W/m 8,5 C 11,6 C 0,0 km/h (0 Bft) 0,00 %
11.07.2015 01:00 11,4 C 82 % 1019,7 hPa 0,0 l/m 0,0 km/h (0 Bft) NO 55 0 min 0,000 mm 0,0 UV-I 0 W/m 8,4 C 11,4 C 0,0 km/h (0 Bft) 0,00 %
11.07.2015 01:05 11,1 C 84 % 1019,7 hPa 0,0 l/m 0,0 km/h (0 Bft) NO 51 0 min 0,000 mm 0,0 UV-I 0 W/m 8,5 C 11,1 C 0,0 km/h (0 Bft) 0,00 %
11.07.2015 01:10 10,8 C 84 % 1019,8 hPa 0,0 l/m 0,0 km/h (0 Bft) NO 49 0 min 0,000 mm 0,0 UV-I 0 W/m 8,2 C 10,8 C 0,0 km/h (0 Bft) 0,00 %
11.07.2015 01:15 10,6 C 84 % 1019,6 hPa 0,0 l/m 0,0 km/h (0 Bft) NO 45 0 min 0,000 mm 0,0 UV-I 0 W/m 8,0 C 10,6 C 0,0 km/h (0 Bft) 0,00 %
11.07.2015 01:20 10,4 C 85 % 1019,6 hPa 0,0 l/m 0,0 km/h (0 Bft) NO 53 0 min 0,000 mm 0,0 UV-I 0 W/m 8,0 C 10,4 C 0,0 km/h (0 Bft) 0,00 %
11.07.2015 01:25 10,2 C 86 % 1019,4 hPa 0,0 l/m 0,0 km/h (0 Bft) NO 51 0 min 0,000 mm 0,0 UV-I 0 W/m 8,0 C 10,2 C 0,0 km/h (0 Bft) 0,00 %
11.07.2015 01:30 10,1 C 87 % 1019,6 hPa 0,0 l/m 0,0 km/h (0 Bft) NO 50 0 min 0,000 mm 0,0 UV-I 0 W/m 8,0 C 10,1 C 0,0 km/h (0 Bft) 0,00 %
11.07.2015 01:35 10,1 C 87 % 1019,6 hPa 0,0 l/m 0,0 km/h (0 Bft) NO 49 0 min 0,000 mm 0,0 UV-I 0 W/m 8,0 C 10,1 C 0,0 km/h (0 Bft) 0,00 %
11.07.2015 01:40 10,1 C 88 % 1019,4 hPa 0,0 l/m 0,0 km/h (0 Bft) NO 49 0 min 0,000 mm 0,0 UV-I 0 W/m 8,2 C 10,1 C 0,0 km/h (0 Bft) 0,00 %
11.07.2015 01:45 10,0 C 88 % 1019,5 hPa 0,0 l/m 0,0 km/h (0 Bft) NO 42 0 min 0,000 mm 0,0 UV-I 0 W/m 8,1 C 10,0 C 0,0 km/h (0 Bft) 0,00 %
11.07.2015 01:50 9,9 C 89 % 1019,5 hPa 0,0 l/m 0,0 km/h (0 Bft) NO 47 0 min 0,000 mm 0,0 UV-I 0 W/m 8,2 C 9,9 C 0,0 km/h (0 Bft) 0,00 %
11.07.2015 01:55 9,7 C 89 % 1019,4 hPa 0,0 l/m 0,0 km/h (0 Bft) NO 47 0 min 0,000 mm 0,0 UV-I 0 W/m 8,0 C 9,7 C 0,0 km/h (0 Bft) 0,00 %
11.07.2015 02:00 9,7 C 90 % 1019,4 hPa 0,0 l/m 0,0 km/h (0 Bft) NO 47 0 min 0,000 mm 0,0 UV-I 0 W/m 8,1 C 9,7 C 0,0 km/h (0 Bft) 0,00 %
11.07.2015 02:05 9,6 C 90 % 1019,5 hPa 0,0 l/m 0,0 km/h (0 Bft) NO 48 0 min 0,000 mm 0,0 UV-I 0 W/m 8,0 C 9,6 C 0,0 km/h (0 Bft) 0,00 %
11.07.2015 02:10 9,5 C 90 % 1019,7 hPa 0,0 l/m 0,0 km/h (0 Bft) NO 48 0 min 0,000 mm 0,0 UV-I 0 W/m 7,9 C 9,5 C 0,0 km/h (0 Bft) 0,00 %
11.07.2015 02:15 9,3 C 91 % 1019,7 hPa 0,0 l/m 0,0 km/h (0 Bft) NO 45 0 min 0,000 mm 0,0 UV-I 0 W/m 7,9 C 9,3 C 0,0 km/h (0 Bft) 0,00 %
11.07.2015 02:20 9,3 C 92 % 1019,6 hPa 0,0 l/m 0,0 km/h (0 Bft) O-NO 66 0 min 0,000 mm 0,0 UV-I 0 W/m 8,1 C 9,3 C 0,0 km/h (0 Bft) 0,00 %
11.07.2015 02:25 9,3 C 92 % 1019,6 hPa 0,0 l/m 0,0 km/h (0 Bft) O-NO 66 0 min 0,000 mm 0,0 UV-I 0 W/m 8,1 C 9,3 C 0,0 km/h (0 Bft) 0,00 %
11.07.2015 02:30 9,3 C 92 % 1019,6 hPa 0,0 l/m 0,0 km/h (0 Bft) O-NO 66 0 min 0,000 mm 0,0 UV-I 0 W/m 8,1 C 9,3 C 0,0 km/h (0 Bft) 0,00 %
11.07.2015 02:35 9,3 C 92 % 1019,7 hPa 0,0 l/m 0,0 km/h (0 Bft) O-NO 66 0 min 0,000 mm 0,0 UV-I 0 W/m 8,1 C 9,3 C 0,0 km/h (0 Bft) 0,00 %
11.07.2015 02:40 9,3 C 92 % 1019,7 hPa 0,0 l/m 0,0 km/h (0 Bft) O-NO 66 0 min 0,000 mm 0,0 UV-I 0 W/m 8,1 C 9,3 C 0,0 km/h (0 Bft) 0,00 %
11.07.2015 02:45 9,3 C 92 % 1019,7 hPa 0,0 l/m 0,0 km/h (0 Bft) O-NO 66 0 min 0,000 mm 0,0 UV-I 0 W/m 8,1 C 9,3 C 0,0 km/h (0 Bft) 0,00 %
11.07.2015 02:50 9,2 C 92 % 1019,6 hPa 0,0 l/m 0,0 km/h (0 Bft) O-NO 72 0 min 0,000 mm 0,0 UV-I 0 W/m 8,0 C 9,2 C 0,0 km/h (0 Bft) 0,00 %
11.07.2015 02:55 9,2 C 93 % 1019,7 hPa 0,0 l/m 0,0 km/h (0 Bft) O-NO 69 0 min 0,000 mm 0,0 UV-I 0 W/m 8,1 C 9,2 C 0,0 km/h (0 Bft) 0,00 %
11.07.2015 03:00 9,2 C 93 % 1019,6 hPa 0,0 l/m 0,0 km/h (0 Bft) O-NO 69 0 min 0,000 mm 0,0 UV-I 0 W/m 8,1 C 9,2 C 0,0 km/h (0 Bft) 0,00 %
11.07.2015 03:05 9,3 C 93 % 1019,6 hPa 0,0 l/m 0,0 km/h (0 Bft) O-NO 59 0 min 0,000 mm 0,0 UV-I 0 W/m 8,2 C 9,3 C 0,0 km/h (0 Bft) 0,00 %
11.07.2015 03:10 9,6 C 92 % 1019,5 hPa 0,0 l/m 0,0 km/h (0 Bft) O 93 0 min 0,000 mm 0,0 UV-I 0 W/m 8,4 C 9,6 C 0,0 km/h (0 Bft) 0,00 %
11.07.2015 03:15 9,7 C 92 % 1019,4 hPa 0,0 l/m 0,0 km/h (0 Bft) O-NO 69 0 min 0,000 mm 0,0 UV-I 0 W/m 8,5 C 9,7 C 0,0 km/h (0 Bft) 0,00 %
11.07.2015 03:20 9,7 C 91 % 1019,5 hPa 0,0 l/m 0,0 km/h (0 Bft) O-NO 66 0 min 0,000 mm 0,0 UV-I 0 W/m 8,3 C 9,7 C 0,0 km/h (0 Bft) 0,00 %
11.07.2015 03:25 9,7 C 91 % 1019,5 hPa 0,0 l/m 0,0 km/h (0 Bft) O-NO 66 0 min 0,000 mm 0,0 UV-I 0 W/m 8,3 C 9,7 C 0,0 km/h (0 Bft) 0,00 %
11.07.2015 03:30 9,7 C 91 % 1019,3 hPa 0,0 l/m 0,0 km/h (0 Bft) O-NO 66 0 min 0,000 mm 0,0 UV-I 0 W/m 8,3 C 9,7 C 0,0 km/h (0 Bft) 0,00 %
11.07.2015 03:35 9,6 C 90 % 1019,3 hPa 0,0 l/m 0,0 km/h (0 Bft) O-NO 62 0 min 0,000 mm 0,0 UV-I 0 W/m 8,0 C 9,6 C 0,0 km/h (0 Bft) 0,00 %
11.07.2015 03:40 9,5 C 91 % 1019,1 hPa 0,0 l/m 0,0 km/h (0 Bft) N 354 0 min 0,000 mm 0,0 UV-I 0 W/m 8,1 C 9,5 C 0,0 km/h (0 Bft) 0,00 %
11.07.2015 03:45 9,4 C 91 % 1019,4 hPa 0,0 l/m 0,0 km/h (0 Bft) NO 42 0 min 0,000 mm 0,0 UV-I 0 W/m 8,0 C 9,4 C 0,0 km/h (0 Bft) 0,00 %
11.07.2015 03:50 9,2 C 91 % 1019,4 hPa 0,0 l/m 0,0 km/h (0 Bft) NO 38 0 min 0,000 mm 0,0 UV-I 0 W/m 7,8 C 9,2 C 0,0 km/h (0 Bft) 0,00 %
11.07.2015 03:55 9,0 C 92 % 1019,4 hPa 0,0 l/m 0,0 km/h (0 Bft) O-NO 72 0 min 0,000 mm 0,0 UV-I 0 W/m 7,8 C 9,0 C 0,0 km/h (0 Bft) 0,00 %
11.07.2015 04:00 9,0 C 92 % 1019,5 hPa 0,0 l/m 0,0 km/h (0 Bft) NO 47 0 min 0,000 mm 0,0 UV-I 0 W/m 7,8 C 9,0 C 0,0 km/h (0 Bft) 0,00 %
11.07.2015 04:05 9,1 C 92 % 1019,5 hPa 0,0 l/m 0,0 km/h (0 Bft) NO 43 0 min 0,000 mm 0,0 UV-I 0 W/m 7,9 C 9,1 C 0,0 km/h (0 Bft) 0,00 %
11.07.2015 04:10 9,1 C 92 % 1019,6 hPa 0,0 l/m 0,0 km/h (0 Bft) O-NO 77 0 min 0,000 mm 0,0 UV-I 0 W/m 7,9 C 9,1 C 0,0 km/h (0 Bft) 0,00 %
11.07.2015 04:15 9,0 C 92 % 1019,7 hPa 0,0 l/m 0,0 km/h (0 Bft) NO 51 0 min 0,000 mm 0,0 UV-I 0 W/m 7,8 C 9,0 C 0,0 km/h (0 Bft) 0,00 %
11.07.2015 04:20 9,0 C 92 % 1019,4 hPa 0,0 l/m 0,0 km/h (0 Bft) NO 56 0 min 0,000 mm 0,0 UV-I 0 W/m 7,8 C 9,0 C 0,0 km/h (0 Bft) 0,00 %
11.07.2015 04:25 9,0 C 92 % 1019,5 hPa 0,0 l/m 0,0 km/h (0 Bft) NO 55 0 min 0,000 mm 0,0 UV-I 0 W/m 7,8 C 9,0 C 0,0 km/h (0 Bft) 0,00 %
11.07.2015 04:30 9,0 C 92 % 1019,4 hPa 0,0 l/m 0,0 km/h (0 Bft) O-NO 60 0 min 0,000 mm 0,0 UV-I 0 W/m 7,8 C 9,0 C 0,0 km/h (0 Bft) 0,00 %
11.07.2015 04:35 9,1 C 92 % 1019,2 hPa 0,0 l/m 0,0 km/h (0 Bft) O-NO 59 0 min 0,000 mm 0,0 UV-I 0 W/m 7,9 C 9,1 C 0,0 km/h (0 Bft) 0,00 %
11.07.2015 04:40 9,1 C 92 % 1019,3 hPa 0,0 l/m 0,0 km/h (0 Bft) NO 53 0 min 0,000 mm 0,0 UV-I 0 W/m 7,9 C 9,1 C 0,0 km/h (0 Bft) 0,00 %
11.07.2015 04:45 9,1 C 92 % 1019,1 hPa 0,0 l/m 0,0 km/h (0 Bft) O-NO 60 0 min 0,000 mm 0,0 UV-I 0 W/m 7,9 C 9,1 C 0,0 km/h (0 Bft) 0,00 %
11.07.2015 04:50 9,1 C 92 % 1019,1 hPa 0,0 l/m 0,0 km/h (0 Bft) NO 47 0 min 0,000 mm 0,0 UV-I 0 W/m 7,9 C 9,1 C 0,0 km/h (0 Bft) 0,00 %
11.07.2015 04:55 9,0 C 93 % 1019,1 hPa 0,0 l/m 0,0 km/h (0 Bft) NO 51 0 min 0,000 mm 0,0 UV-I 0 W/m 7,9 C 9,0 C 0,0 km/h (0 Bft) 0,00 %
11.07.2015 05:00 8,9 C 93 % 1019,2 hPa 0,0 l/m 0,0 km/h (0 Bft) NO 51 0 min 0,000 mm 0,0 UV-I 0 W/m 7,8 C 8,9 C 0,0 km/h (0 Bft) 0,00 %
11.07.2015 05:05 8,7 C 93 % 1019,2 hPa 0,0 l/m 0,0 km/h (0 Bft) O-NO 64 0 min 0,000 mm 0,0 UV-I 0 W/m 7,6 C 8,7 C 0,0 km/h (0 Bft) 0,00 %
11.07.2015 05:10 8,6 C 93 % 1019,0 hPa 0,0 l/m 0,0 km/h (0 Bft) NO 52 0 min 0,000 mm 0,0 UV-I 0 W/m 7,5 C 8,6 C 0,0 km/h (0 Bft) 0,00 %
11.07.2015 05:15 8,6 C 93 % 1019,1 hPa 0,0 l/m 0,0 km/h (0 Bft) NO 49 0 min 0,000 mm 0,0 UV-I 0 W/m 7,5 C 8,6 C 0,0 km/h (0 Bft) 0,00 %
11.07.2015 05:20 8,5 C 94 % 1019,3 hPa 0,0 l/m 0,0 km/h (0 Bft) NO 55 0 min 0,000 mm 0,0 UV-I 0 W/m 7,6 C 8,5 C 0,0 km/h (0 Bft) 0,00 %
11.07.2015 05:25 8,4 C 93 % 1019,2 hPa 0,0 l/m 0,0 km/h (0 Bft) NO 50 0 min 0,000 mm 0,0 UV-I 0 W/m 7,3 C 8,4 C 0,0 km/h (0 Bft) 0,00 %
11.07.2015 05:30 8,4 C 93 % 1019,2 hPa 0,0 l/m 0,0 km/h (0 Bft) NO 46 0 min 0,000 mm 0,0 UV-I 3 W/m 7,3 C 8,4 C 0,0 km/h (0 Bft) 0,00 %
11.07.2015 05:35 8,4 C 92 % 1018,9 hPa 0,0 l/m 0,0 km/h (0 Bft) NO 46 0 min 0,000 mm 0,0 UV-I 7 W/m 7,2 C 8,4 C 0,0 km/h (0 Bft) 0,00 %
11.07.2015 05:40 8,5 C 92 % 1019,0 hPa 0,0 l/m 0,0 km/h (0 Bft) O 91 0 min 0,000 mm 0,0 UV-I 16 W/m 7,3 C 8,5 C 0,0 km/h (0 Bft) 0,00 %
11.07.2015 05:45 8,6 C 91 % 1019,0 hPa 0,0 l/m 0,0 km/h (0 Bft) O-NO 63 0 min 0,000 mm 0,0 UV-I 21 W/m 7,2 C 8,6 C 0,0 km/h (0 Bft) 0,00 %
11.07.2015 05:50 8,7 C 91 % 1019,0 hPa 0,0 l/m 0,0 km/h (0 Bft) NO 50 0 min 0,000 mm 0,0 UV-I 26 W/m 7,3 C 8,7 C 0,0 km/h (0 Bft) 0,00 %
11.07.2015 05:55 8,9 C 90 % 1018,9 hPa 0,0 l/m 0,0 km/h (0 Bft) NO 49 0 min 0,000 mm 0,0 UV-I 34 W/m 7,4 C 8,9 C 0,0 km/h (0 Bft) 0,00 %
11.07.2015 06:00 9,5 C 86 % 1018,8 hPa 0,0 l/m 0,0 km/h (0 Bft) NO 52 0 min 0,000 mm 0,0 UV-I 47 W/m 7,3 C 9,5 C 0,0 km/h (0 Bft) 0,00 %
11.07.2015 06:05 10,3 C 81 % 1018,6 hPa 0,0 l/m 0,0 km/h (0 Bft) O-NO 71 5 min 0,000 mm 0,0 UV-I 128 W/m 7,2 C 10,3 C 0,0 km/h (0 Bft) 0,00 %
11.07.2015 06:10 11,0 C 79 % 1018,6 hPa 0,0 l/m 0,0 km/h (0 Bft) O-NO 60 5 min 0,000 mm 0,0 UV-I 151 W/m 7,5 C 11,0 C 0,0 km/h (0 Bft) 0,00 %
11.07.2015 06:15 11,6 C 76 % 1018,3 hPa 0,0 l/m 0,0 km/h (0 Bft) NO 55 5 min 0,000 mm 0,0 UV-I 172 W/m 7,5 C 11,6 C 0,0 km/h (0 Bft) 0,00 %
11.07.2015 06:20 12,0 C 75 % 1018,5 hPa 0,0 l/m 0,0 km/h (0 Bft) O 91 5 min 0,000 mm 0,0 UV-I 194 W/m 7,7 C 12,0 C 0,0 km/h (0 Bft) 0,00 %
11.07.2015 06:25 12,5 C 73 % 1018,1 hPa 0,0 l/m 0,0 km/h (0 Bft) NO 52 5 min 0,000 mm 0,0 UV-I 215 W/m 7,8 C 12,5 C 0,0 km/h (0 Bft) 0,00 %
11.07.2015 06:30 12,7 C 72 % 1018,3 hPa 0,0 l/m 0,0 km/h (0 Bft) NO 49 5 min 0,000 mm 1,0 UV-I 235 W/m 7,8 C 12,7 C 0,0 km/h (0 Bft) 0,00 %
11.07.2015 06:35 12,9 C 71 % 1018,3 hPa 0,0 l/m 0,0 km/h (0 Bft) NO 50 5 min 0,000 mm 1,0 UV-I 254 W/m 7,8 C 12,9 C 0,0 km/h (0 Bft) 0,00 %
11.07.2015 06:40 13,1 C 71 % 1018,4 hPa 0,0 l/m 0,0 km/h (0 Bft) NO 53 5 min 0,000 mm 1,0 UV-I 275 W/m 8,0 C 13,1 C 0,0 km/h (0 Bft) 0,00 %
11.07.2015 06:45 13,2 C 68 % 1018,2 hPa 0,0 l/m 1,8 km/h (1 Bft) O 81 5 min 0,000 mm 1,0 UV-I 293 W/m 7,4 C 13,2 C 4,0 km/h (1 Bft) 0,00 %
11.07.2015 06:50 13,3 C 68 % 1018,1 hPa 0,0 l/m 1,8 km/h (1 Bft) SO 128 5 min 0,000 mm 1,0 UV-I 311 W/m 7,5 C 13,3 C 4,0 km/h (1 Bft) 0,00 %
11.07.2015 06:55 13,5 C 68 % 1018,3 hPa 0,0 l/m 0,0 km/h (0 Bft) O-NO 70 5 min 0,000 mm 1,0 UV-I 326 W/m 7,7 C 13,5 C 0,0 km/h (0 Bft) 0,00 %
11.07.2015 07:00 13,6 C 66 % 1018,1 hPa 0,0 l/m 0,0 km/h (0 Bft) N-NO 21 5 min 0,000 mm 1,0 UV-I 341 W/m 7,4 C 13,6 C 0,0 km/h (0 Bft) 0,00 %
11.07.2015 07:05 13,8 C 64 % 1018,3 hPa 0,0 l/m 1,8 km/h (1 Bft) SO 124 5 min 0,000 mm 1,0 UV-I 356 W/m 7,1 C 13,8 C 4,0 km/h (1 Bft) 0,00 %
11.07.2015 07:10 14,0 C 64 % 1018,0 hPa 0,0 l/m 0,0 km/h (0 Bft) NW 323 5 min 0,000 mm 1,0 UV-I 368 W/m 7,3 C 14,0 C 0,0 km/h (0 Bft) 0,00 %
11.07.2015 07:15 14,2 C 63 % 1018,1 hPa 0,0 l/m 4,0 km/h (1 Bft) O-NO 74 5 min 0,000 mm 1,0 UV-I 379 W/m 7,3 C 14,2 C 7,9 km/h (2 Bft) 0,00 %
11.07.2015 07:20 14,2 C 61 % 1018,1 hPa 0,0 l/m 0,4 km/h (0 Bft) SO 139 5 min 0,000 mm 1,0 UV-I 388 W/m 6,8 C 14,2 C 4,0 km/h (1 Bft) 0,00 %
11.07.2015 07:25 14,4 C 61 % 1018,2 hPa 0,0 l/m 0,4 km/h (0 Bft) NO 36 5 min 0,000 mm 1,0 UV-I 393 W/m 7,0 C 14,4 C 4,0 km/h (1 Bft) 0,00 %
11.07.2015 07:30 14,4 C 61 % 1018,1 hPa 0,0 l/m 0,7 km/h (0 Bft) O 101 5 min 0,000 mm 1,0 UV-I 398 W/m 7,0 C 14,4 C 4,0 km/h (1 Bft) 0,00 %
11.07.2015 07:35 14,4 C 60 % 1017,9 hPa 0,0 l/m 0,0 km/h (0 Bft) NO 55 5 min 0,000 mm 1,0 UV-I 401 W/m 6,7 C 14,4 C 0,0 km/h (0 Bft) 0,00 %
11.07.2015 07:40 14,5 C 60 % 1017,9 hPa 0,0 l/m 4,3 km/h (1 Bft) O-NO 67 5 min 0,000 mm 1,0 UV-I 404 W/m 6,8 C 14,5 C 7,9 km/h (2 Bft) 0,00 %
11.07.2015 07:45 14,9 C 58 % 1018,2 hPa 0,0 l/m 4,3 km/h (1 Bft) O-NO 66 5 min 0,000 mm 1,0 UV-I 408 W/m 6,7 C 14,9 C 7,9 km/h (2 Bft) 0,00 %
11.07.2015 07:50 15,2 C 59 % 1018,1 hPa 0,0 l/m 5,8 km/h (2 Bft) O-SO 116 5 min 0,000 mm 1,0 UV-I 413 W/m 7,2 C 15,2 C 11,9 km/h (2 Bft) 0,00 %
11.07.2015 07:55 15,4 C 54 % 1018,0 hPa 0,0 l/m 2,9 km/h (1 Bft) O-NO 65 5 min 0,000 mm 1,0 UV-I 414 W/m 6,1 C 15,4 C 4,0 km/h (1 Bft) 0,00 %
11.07.2015 08:00 15,5 C 54 % 1018,1 hPa 0,0 l/m 0,0 km/h (0 Bft) NO 55 5 min 0,000 mm 1,0 UV-I 417 W/m 6,2 C 15,5 C 0,0 km/h (0 Bft) 0,00 %
11.07.2015 08:05 15,7 C 52 % 1018,2 hPa 0,0 l/m 0,4 km/h (0 Bft) O 90 5 min 0,000 mm 1,0 UV-I 416 W/m 5,9 C 15,7 C 4,0 km/h (1 Bft) 0,00 %
11.07.2015 08:10 16,0 C 52 % 1018,1 hPa 0,0 l/m 9,7 km/h (2 Bft) O-SO 113 5 min 0,000 mm 1,0 UV-I 420 W/m 6,2 C 14,4 C 11,9 km/h (2 Bft) 0,00 %
11.07.2015 08:15 16,3 C 51 % 1018,0 hPa 0,0 l/m 2,9 km/h (1 Bft) N-NO 19 5 min 0,000 mm 1,0 UV-I 428 W/m 6,1 C 16,3 C 7,9 km/h (2 Bft) 0,00 %
11.07.2015 08:20 16,5 C 50 % 1017,8 hPa 0,0 l/m 1,4 km/h (1 Bft) SO 145 5 min 0,000 mm 1,0 UV-I 432 W/m 6,0 C 16,5 C 7,9 km/h (2 Bft) 0,00 %
11.07.2015 08:25 16,5 C 51 % 1017,8 hPa 0,0 l/m 3,2 km/h (1 Bft) O 92 5 min 0,000 mm 2,0 UV-I 439 W/m 6,3 C 16,5 C 4,0 km/h (1 Bft) 0,00 %
11.07.2015 08:30 16,5 C 52 % 1017,8 hPa 0,0 l/m 0,0 km/h (0 Bft) N 351 5 min 0,000 mm 2,0 UV-I 444 W/m 6,6 C 16,5 C 0,0 km/h (0 Bft) 0,00 %
11.07.2015 08:35 16,7 C 51 % 1017,9 hPa 0,0 l/m 2,2 km/h (1 Bft) N 351 5 min 0,000 mm 2,0 UV-I 451 W/m 6,5 C 16,7 C 4,0 km/h (1 Bft) 0,00 %
11.07.2015 08:40 17,0 C 51 % 1017,8 hPa 0,0 l/m 0,7 km/h (0 Bft) N-NO 33 5 min 0,000 mm 2,0 UV-I 459 W/m 6,8 C 17,0 C 4,0 km/h (1 Bft) 0,00 %
11.07.2015 08:45 17,1 C 52 % 1017,7 hPa 0,0 l/m 6,8 km/h (2 Bft) O 88 5 min 0,000 mm 2,0 UV-I 465 W/m 7,2 C 16,9 C 11,9 km/h (2 Bft) 0,00 %
11.07.2015 08:50 17,4 C 50 % 1017,7 hPa 0,0 l/m 2,2 km/h (1 Bft) NO 38 5 min 0,000 mm 2,0 UV-I 472 W/m 6,9 C 17,4 C 4,0 km/h (1 Bft) 0,00 %
11.07.2015 08:55 17,8 C 50 % 1017,7 hPa 0,0 l/m 0,0 km/h (0 Bft) N-NO 24 5 min 0,000 mm 2,0 UV-I 483 W/m 7,2 C 17,8 C 0,0 km/h (0 Bft) 0,00 %
11.07.2015 09:00 18,0 C 49 % 1017,6 hPa 0,0 l/m 5,4 km/h (1 Bft) O-SO 105 5 min 0,000 mm 2,0 UV-I 488 W/m 7,1 C 18,0 C 7,9 km/h (2 Bft) 0,00 %
11.07.2015 09:05 18,0 C 48 % 1017,6 hPa 0,0 l/m 8,3 km/h (2 Bft) SO 127 5 min 0,000 mm 2,0 UV-I 496 W/m 6,8 C 17,1 C 11,9 km/h (2 Bft) 0,00 %
11.07.2015 09:10 18,2 C 48 % 1017,6 hPa 0,0 l/m 4,3 km/h (1 Bft) O-NO 66 5 min 0,000 mm 2,0 UV-I 504 W/m 7,0 C 18,2 C 11,9 km/h (2 Bft) 0,00 %
11.07.2015 09:15 18,5 C 47 % 1017,4 hPa 0,0 l/m 4,0 km/h (1 Bft) NO 35 5 min 0,000 mm 2,0 UV-I 510 W/m 7,0 C 18,5 C 7,9 km/h (2 Bft) 0,00 %
11.07.2015 09:20 18,6 C 48 % 1017,5 hPa 0,0 l/m 0,0 km/h (0 Bft) O-NO 58 5 min 0,000 mm 2,0 UV-I 518 W/m 7,4 C 18,6 C 0,0 km/h (0 Bft) 0,00 %
11.07.2015 09:25 18,8 C 47 % 1017,6 hPa 0,0 l/m 5,8 km/h (2 Bft) O 97 5 min 0,000 mm 2,0 UV-I 529 W/m 7,2 C 18,8 C 7,9 km/h (2 Bft) 0,00 %
11.07.2015 09:30 19,1 C 44 % 1017,3 hPa 0,0 l/m 0,4 km/h (0 Bft) S-SW 211 5 min 0,000 mm 2,0 UV-I 542 W/m 6,6 C 19,1 C 4,0 km/h (1 Bft) 0,00 %
11.07.2015 09:35 19,5 C 44 % 1017,2 hPa 0,0 l/m 0,4 km/h (0 Bft) O-NO 71 5 min 0,000 mm 2,0 UV-I 551 W/m 6,9 C 19,5 C 4,0 km/h (1 Bft) 0,00 %
11.07.2015 09:40 20,0 C 41 % 1017,1 hPa 0,0 l/m 0,0 km/h (0 Bft) N-NO 24 5 min 0,000 mm 3,0 UV-I 565 W/m 6,3 C 20,0 C 0,0 km/h (0 Bft) 0,00 %
11.07.2015 09:45 20,3 C 41 % 1016,9 hPa 0,0 l/m 1,8 km/h (1 Bft) NO 48 5 min 0,000 mm 3,0 UV-I 576 W/m 6,6 C 20,3 C 4,0 km/h (1 Bft) 0,00 %
11.07.2015 09:50 20,2 C 45 % 1017,1 hPa 0,0 l/m 1,4 km/h (1 Bft) N-NO 30 5 min 0,000 mm 3,0 UV-I 583 W/m 7,9 C 20,2 C 4,0 km/h (1 Bft) 0,00 %
11.07.2015 09:55 20,2 C 40 % 1017,1 hPa 0,0 l/m 0,4 km/h (0 Bft) O 99 5 min 0,000 mm 3,0 UV-I 593 W/m 6,2 C 20,2 C 4,0 km/h (1 Bft) 0,00 %
11.07.2015 10:00 20,5 C 41 % 1016,9 hPa 0,0 l/m 0,0 km/h (0 Bft) O 85 5 min 0,000 mm 3,0 UV-I 604 W/m 6,8 C 20,5 C 0,0 km/h (0 Bft) 0,00 %
11.07.2015 10:05 20,6 C 42 % 1016,8 hPa 0,0 l/m 1,8 km/h (1 Bft) N-NO 17 5 min 0,000 mm 3,0 UV-I 613 W/m 7,2 C 20,6 C 4,0 km/h (1 Bft) 0,00 %
11.07.2015 10:10 20,5 C 43 % 1016,7 hPa 0,0 l/m 7,2 km/h (2 Bft) O-SO 113 5 min 0,000 mm 3,0 UV-I 620 W/m 7,5 C 20,2 C 7,9 km/h (2 Bft) 0,00 %
11.07.2015 10:15 20,5 C 42 % 1016,9 hPa 0,0 l/m 1,4 km/h (1 Bft) O-NO 63 5 min 0,000 mm 3,0 UV-I 631 W/m 7,1 C 20,5 C 4,0 km/h (1 Bft) 0,00 %
11.07.2015 10:20 20,7 C 39 % 1016,8 hPa 0,0 l/m 1,4 km/h (1 Bft) N-NO 18 5 min 0,000 mm 3,0 UV-I 642 W/m 6,2 C 20,7 C 4,0 km/h (1 Bft) 0,00 %
11.07.2015 10:25 20,9 C 41 % 1016,6 hPa 0,0 l/m 2,2 km/h (1 Bft) N 351 5 min 0,000 mm 3,0 UV-I 650 W/m 7,2 C 20,9 C 4,0 km/h (1 Bft) 0,00 %
11.07.2015 10:30 21,0 C 42 % 1016,8 hPa 0,0 l/m 0,0 km/h (0 Bft) NO 37 5 min 0,000 mm 4,0 UV-I 665 W/m 7,6 C 21,0 C 0,0 km/h (0 Bft) 0,00 %
11.07.2015 10:35 21,2 C 41 % 1016,5 hPa 0,0 l/m 2,2 km/h (1 Bft) O-NO 74 5 min 0,000 mm 4,0 UV-I 678 W/m 7,4 C 21,2 C 7,9 km/h (2 Bft) 0,00 %
11.07.2015 10:40 21,5 C 40 % 1016,4 hPa 0,0 l/m 3,2 km/h (1 Bft) N-NO 17 5 min 0,000 mm 4,0 UV-I 689 W/m 7,3 C 21,5 C 7,9 km/h (2 Bft) 0,00 %
11.07.2015 10:45 21,7 C 40 % 1016,4 hPa 0,0 l/m 2,9 km/h (1 Bft) O 87 5 min 0,000 mm 4,0 UV-I 697 W/m 7,5 C 21,7 C 4,0 km/h (1 Bft) 0,00 %
11.07.2015 10:50 21,8 C 42 % 1016,3 hPa 0,0 l/m 0,0 km/h (0 Bft) NO 40 5 min 0,000 mm 4,0 UV-I 707 W/m 8,3 C 21,8 C 0,0 km/h (0 Bft) 0,00 %
11.07.2015 10:55 22,0 C 40 % 1016,5 hPa 0,0 l/m 0,7 km/h (0 Bft) O 81 5 min 0,000 mm 4,0 UV-I 719 W/m 7,8 C 22,0 C 4,0 km/h (1 Bft) 0,00 %
11.07.2015 11:00 22,3 C 38 % 1016,3 hPa 0,0 l/m 0,0 km/h (0 Bft) NO 52 5 min 0,000 mm 4,0 UV-I 730 W/m 7,3 C 22,3 C 0,0 km/h (0 Bft) 0,00 %
11.07.2015 11:05 22,7 C 36 % 1016,2 hPa 0,0 l/m 1,4 km/h (1 Bft) O-NO 72 5 min 0,000 mm 4,0 UV-I 744 W/m 6,9 C 22,7 C 4,0 km/h (1 Bft) 0,00 %
11.07.2015 11:10 22,9 C 39 % 1016,3 hPa 0,0 l/m 0,0 km/h (0 Bft) NO 45 5 min 0,000 mm 5,0 UV-I 751 W/m 8,2 C 22,9 C 0,0 km/h (0 Bft) 0,00 %
11.07.2015 11:15 23,2 C 37 % 1016,0 hPa 0,0 l/m 4,0 km/h (1 Bft) N 349 5 min 0,000 mm 5,0 UV-I 759 W/m 7,7 C 23,2 C 7,9 km/h (2 Bft) 0,00 %
11.07.2015 11:20 23,5 C 37 % 1016,0 hPa 0,0 l/m 7,9 km/h (2 Bft) O-SO 102 5 min 0,000 mm 5,0 UV-I 767 W/m 8,0 C 23,1 C 11,9 km/h (2 Bft) 0,00 %
11.07.2015 11:25 23,5 C 36 % 1016,3 hPa 0,0 l/m 1,4 km/h (1 Bft) O-SO 115 5 min 0,000 mm 5,0 UV-I 767 W/m 7,6 C 23,5 C 4,0 km/h (1 Bft) 0,00 %
11.07.2015 11:30 23,5 C 37 % 1016,2 hPa 0,0 l/m 0,0 km/h (0 Bft) NO 51 5 min 0,000 mm 5,0 UV-I 791 W/m 8,0 C 23,5 C 0,0 km/h (0 Bft) 0,00 %
11.07.2015 11:35 23,7 C 38 % 1016,0 hPa 0,0 l/m 2,2 km/h (1 Bft) O 87 5 min 0,000 mm 5,0 UV-I 722 W/m 8,5 C 23,7 C 4,0 km/h (1 Bft) 0,00 %
11.07.2015 11:40 23,8 C 36 % 1016,0 hPa 0,0 l/m 0,0 km/h (0 Bft) O-NO 67 5 min 0,000 mm 5,0 UV-I 767 W/m 7,8 C 23,8 C 0,0 km/h (0 Bft) 0,00 %
11.07.2015 11:45 23,7 C 39 % 1015,9 hPa 0,0 l/m 0,0 km/h (0 Bft) NO 46 5 min 0,000 mm 5,0 UV-I 777 W/m 8,9 C 23,7 C 0,0 km/h (0 Bft) 0,00 %
11.07.2015 11:50 23,7 C 40 % 1015,9 hPa 0,0 l/m 0,0 km/h (0 Bft) NO 48 5 min 0,000 mm 5,0 UV-I 760 W/m 9,3 C 23,7 C 0,0 km/h (0 Bft) 0,00 %
11.07.2015 11:55 23,8 C 33 % 1015,9 hPa 0,0 l/m 0,0 km/h (0 Bft) NO 35 5 min 0,000 mm 6,0 UV-I 801 W/m 6,6 C 23,8 C 0,0 km/h (0 Bft) 0,00 %
11.07.2015 12:00 24,1 C 35 % 1015,9 hPa 0,0 l/m 0,0 km/h (0 Bft) O-NO 58 5 min 0,000 mm 5,0 UV-I 765 W/m 7,7 C 24,1 C 0,0 km/h (0 Bft) 0,00 %
11.07.2015 12:05 24,2 C 35 % 1015,7 hPa 0,0 l/m 5,8 km/h (2 Bft) NW 307 5 min 0,000 mm 5,0 UV-I 817 W/m 7,8 C 24,2 C 7,9 km/h (2 Bft) 0,00 %
11.07.2015 12:10 23,8 C 36 % 1015,7 hPa 0,0 l/m 0,4 km/h (0 Bft) N-NW 336 5 min 0,000 mm 5,0 UV-I 809 W/m 7,8 C 23,8 C 4,0 km/h (1 Bft) 0,00 %
11.07.2015 12:15 23,4 C 41 % 1015,7 hPa 0,0 l/m 0,0 km/h (0 Bft) N-NO 28 5 min 0,000 mm 5,0 UV-I 784 W/m 9,4 C 23,4 C 0,0 km/h (0 Bft) 0,00 %
11.07.2015 12:20 23,5 C 39 % 1015,7 hPa 0,0 l/m 4,0 km/h (1 Bft) NO 48 5 min 0,000 mm 5,0 UV-I 833 W/m 8,7 C 23,5 C 4,0 km/h (1 Bft) 0,00 %
11.07.2015 12:25 23,8 C 33 % 1015,7 hPa 0,0 l/m 1,4 km/h (1 Bft) N-NW 347 5 min 0,000 mm 6,0 UV-I 766 W/m 6,6 C 23,8 C 4,0 km/h (1 Bft) 0,00 %
11.07.2015 12:30 24,0 C 33 % 1015,8 hPa 0,0 l/m 0,0 km/h (0 Bft) NO 47 5 min 0,000 mm 6,0 UV-I 836 W/m 6,7 C 24,0 C 0,0 km/h (0 Bft) 0,00 %
11.07.2015 12:35 24,1 C 40 % 1015,6 hPa 0,0 l/m 0,0 km/h (0 Bft) NO 50 5 min 0,000 mm 6,0 UV-I 847 W/m 9,6 C 24,1 C 0,0 km/h (0 Bft) 0,00 %
11.07.2015 12:40 24,2 C 40 % 1015,4 hPa 0,0 l/m 1,4 km/h (1 Bft) N-NO 21 5 min 0,000 mm 6,0 UV-I 860 W/m 9,7 C 24,2 C 4,0 km/h (1 Bft) 0,00 %
11.07.2015 12:45 24,5 C 33 % 1015,3 hPa 0,0 l/m 0,4 km/h (0 Bft) N-NO 28 5 min 0,000 mm 6,0 UV-I 861 W/m 7,2 C 24,5 C 4,0 km/h (1 Bft) 0,00 %
11.07.2015 12:50 24,5 C 32 % 1015,3 hPa 0,0 l/m 2,2 km/h (1 Bft) W 271 5 min 0,000 mm 6,0 UV-I 885 W/m 6,7 C 24,5 C 4,0 km/h (1 Bft) 0,00 %
11.07.2015 12:55 24,5 C 38 % 1015,1 hPa 0,0 l/m 0,0 km/h (0 Bft) NO 35 5 min 0,000 mm 6,0 UV-I 894 W/m 9,2 C 24,5 C 0,0 km/h (0 Bft) 0,00 %
11.07.2015 13:00 24,5 C 36 % 1015,2 hPa 0,0 l/m 0,0 km/h (0 Bft) N-NO 31 5 min 0,000 mm 4,0 UV-I 969 W/m 8,4 C 24,5 C 0,0 km/h (0 Bft) 0,00 %
11.07.2015 13:05 24,6 C 34 % 1015,0 hPa 0,0 l/m 0,0 km/h (0 Bft) N-NO 29 5 min 0,000 mm 5,0 UV-I 967 W/m 7,7 C 24,6 C 0,0 km/h (0 Bft) 0,00 %
11.07.2015 13:10 24,5 C 34 % 1015,0 hPa 0,0 l/m 0,0 km/h (0 Bft) NW 308 5 min 0,000 mm 6,0 UV-I 997 W/m 7,6 C 24,5 C 0,0 km/h (0 Bft) 0,00 %
11.07.2015 13:15 24,4 C 40 % 1015,0 hPa 0,0 l/m 4,0 km/h (1 Bft) N-NW 344 5 min 0,000 mm 6,0 UV-I 1049 W/m 9,9 C 24,4 C 4,0 km/h (1 Bft) 0,00 %
11.07.2015 13:20 24,4 C 37 % 1014,9 hPa 0,0 l/m 1,4 km/h (1 Bft) N-NW 336 5 min 0,000 mm 6,0 UV-I 1147 W/m 8,8 C 24,4 C 4,0 km/h (1 Bft) 0,00 %
11.07.2015 13:25 24,8 C 33 % 1014,6 hPa 0,0 l/m 0,0 km/h (0 Bft) NO 36 5 min 0,000 mm 6,0 UV-I 1110 W/m 7,4 C 24,8 C 0,0 km/h (0 Bft) 0,00 %
11.07.2015 13:30 25,2 C 30 % 1014,6 hPa 0,0 l/m 1,4 km/h (1 Bft) O-SO 111 5 min 0,000 mm 6,0 UV-I 807 W/m 6,4 C 25,2 C 4,0 km/h (1 Bft) 0,00 %
11.07.2015 13:35 25,5 C 35 % 1014,3 hPa 0,0 l/m 0,0 km/h (0 Bft) O-NO 65 5 min 0,000 mm 6,0 UV-I 1035 W/m 8,9 C 25,5 C 0,0 km/h (0 Bft) 0,00 %
11.07.2015 13:40 25,7 C 33 % 1014,3 hPa 0,0 l/m 0,0 km/h (0 Bft) N-NO 27 5 min 0,000 mm 4,0 UV-I 935 W/m 8,2 C 25,7 C 0,0 km/h (0 Bft) 0,00 %
11.07.2015 13:45 25,9 C 29 % 1014,1 hPa 0,0 l/m 0,0 km/h (0 Bft) O-NO 64 5 min 0,000 mm 6,0 UV-I 1029 W/m 6,5 C 25,9 C 0,0 km/h (0 Bft) 0,00 %
11.07.2015 13:50 26,4 C 30 % 1013,9 hPa 0,0 l/m 0,0 km/h (0 Bft) SO 128 5 min 0,000 mm 4,0 UV-I 965 W/m 7,4 C 26,4 C 0,0 km/h (0 Bft) 0,00 %
11.07.2015 13:55 26,8 C 31 % 1013,9 hPa 0,0 l/m 0,0 km/h (0 Bft) NO 34 5 min 0,000 mm 5,0 UV-I 485 W/m 8,2 C 26,8 C 0,0 km/h (0 Bft) 0,00 %
11.07.2015 14:00 26,9 C 33 % 1014,0 hPa 0,0 l/m 3,2 km/h (1 Bft) NW 315 5 min 0,000 mm 5,0 UV-I 729 W/m 9,3 C 26,9 C 4,0 km/h (1 Bft) 0,00 %
11.07.2015 14:05 26,9 C 31 % 1013,7 hPa 0,0 l/m 0,0 km/h (0 Bft) N-NW 342 5 min 0,000 mm 4,0 UV-I 737 W/m 8,3 C 26,9 C 0,0 km/h (0 Bft) 0,00 %
11.07.2015 14:10 26,6 C 31 % 1013,7 hPa 0,0 l/m 0,0 km/h (0 Bft) NO 40 5 min 0,000 mm 3,0 UV-I 723 W/m 8,1 C 26,6 C 0,0 km/h (0 Bft) 0,00 %
11.07.2015 14:15 26,6 C 31 % 1013,7 hPa 0,0 l/m 2,2 km/h (1 Bft) O-SO 119 5 min 0,000 mm 4,0 UV-I 702 W/m 8,1 C 26,6 C 4,0 km/h (1 Bft) 0,00 %
11.07.2015 14:20 26,6 C 33 % 1013,7 hPa 0,0 l/m 0,4 km/h (0 Bft) N-NW 340 5 min 0,000 mm 4,0 UV-I 840 W/m 9,0 C 26,6 C 4,0 km/h (1 Bft) 0,00 %
11.07.2015 14:25 26,7 C 32 % 1013,8 hPa 0,0 l/m 0,4 km/h (0 Bft) N-NW 344 5 min 0,000 mm 3,0 UV-I 879 W/m 8,6 C 26,7 C 4,0 km/h (1 Bft) 0,00 %
11.07.2015 14:30 26,9 C 30 % 1013,6 hPa 0,0 l/m 0,0 km/h (0 Bft) N-NW 348 5 min 0,000 mm 4,0 UV-I 998 W/m 7,8 C 26,9 C 0,0 km/h (0 Bft) 0,00 %
11.07.2015 14:35 26,9 C 32 % 1013,5 hPa 0,0 l/m 0,0 km/h (0 Bft) NO 49 5 min 0,000 mm 5,0 UV-I 839 W/m 8,8 C 26,9 C 0,0 km/h (0 Bft) 0,00 %
11.07.2015 14:40 26,9 C 33 % 1013,6 hPa 0,0 l/m 0,0 km/h (0 Bft) O-NO 59 5 min 0,000 mm 5,0 UV-I 680 W/m 9,3 C 26,9 C 0,0 km/h (0 Bft) 0,00 %
11.07.2015 14:45 27,3 C 32 % 1013,4 hPa 0,0 l/m 0,0 km/h (0 Bft) NO 36 0 min 0,000 mm 5,0 UV-I 415 W/m 9,1 C 27,3 C 0,0 km/h (0 Bft) 0,00 %
11.07.2015 14:50 27,7 C 31 % 1013,3 hPa 0,0 l/m 0,0 km/h (0 Bft) NO 39 5 min 0,000 mm 3,0 UV-I 505 W/m 9,0 C 27,7 C 0,0 km/h (0 Bft) 0,00 %
11.07.2015 14:55 27,8 C 33 % 1013,3 hPa 0,0 l/m 0,7 km/h (0 Bft) NO 43 5 min 0,000 mm 2,0 UV-I 584 W/m 10,0 C 27,8 C 4,0 km/h (1 Bft) 0,00 %
11.07.2015 15:00 27,2 C 32 % 1013,2 hPa 0,0 l/m 1,4 km/h (1 Bft) W-NW 299 5 min 0,000 mm 3,0 UV-I 673 W/m 9,1 C 27,2 C 4,0 km/h (1 Bft) 0,00 %
11.07.2015 15:05 26,6 C 33 % 1013,3 hPa 0,0 l/m 0,0 km/h (0 Bft) NO 54 5 min 0,000 mm 3,0 UV-I 935 W/m 9,0 C 26,6 C 0,0 km/h (0 Bft) 0,00 %
11.07.2015 15:10 26,2 C 34 % 1013,5 hPa 0,0 l/m 0,7 km/h (0 Bft) NW 323 5 min 0,000 mm 3,0 UV-I 730 W/m 9,1 C 26,2 C 4,0 km/h (1 Bft) 0,00 %
11.07.2015 15:15 26,0 C 34 % 1013,3 hPa 0,0 l/m 4,0 km/h (1 Bft) W-NW 301 5 min 0,000 mm 4,0 UV-I 612 W/m 8,9 C 26,0 C 7,9 km/h (2 Bft) 0,00 %
11.07.2015 15:20 26,4 C 34 % 1013,0 hPa 0,0 l/m 0,4 km/h (0 Bft) N-NO 33 5 min 0,000 mm 4,0 UV-I 667 W/m 9,3 C 26,4 C 4,0 km/h (1 Bft) 0,00 %
11.07.2015 15:25 27,0 C 33 % 1013,2 hPa 0,0 l/m 0,0 km/h (0 Bft) N 3 5 min 0,000 mm 3,0 UV-I 486 W/m 9,3 C 27,0 C 0,0 km/h (0 Bft) 0,00 %
11.07.2015 15:30 27,0 C 31 % 1013,1 hPa 0,0 l/m 0,0 km/h (0 Bft) NO 35 5 min 0,000 mm 3,0 UV-I 853 W/m 8,4 C 27,0 C 0,0 km/h (0 Bft) 0,00 %
11.07.2015 15:35 26,7 C 36 % 1013,0 hPa 0,0 l/m 0,0 km/h (0 Bft) O-NO 61 5 min 0,000 mm 3,0 UV-I 888 W/m 10,4 C 26,7 C 0,0 km/h (0 Bft) 0,00 %
11.07.2015 15:40 26,4 C 32 % 1013,2 hPa 0,0 l/m 0,0 km/h (0 Bft) NO 35 5 min 0,000 mm 3,0 UV-I 892 W/m 8,4 C 26,4 C 0,0 km/h (0 Bft) 0,00 %
11.07.2015 15:45 26,4 C 34 % 1013,1 hPa 0,0 l/m 0,0 km/h (0 Bft) NO 54 5 min 0,000 mm 4,0 UV-I 893 W/m 9,3 C 26,4 C 0,0 km/h (0 Bft) 0,00 %
11.07.2015 15:50 26,7 C 33 % 1013,2 hPa 0,0 l/m 0,0 km/h (0 Bft) NO 43 5 min 0,000 mm 3,0 UV-I 874 W/m 9,1 C 26,7 C 0,0 km/h (0 Bft) 0,00 %
11.07.2015 15:55 27,0 C 35 % 1012,9 hPa 0,0 l/m 5,4 km/h (1 Bft) W-SW 256 5 min 0,000 mm 3,0 UV-I 898 W/m 10,2 C 27,0 C 7,9 km/h (2 Bft) 0,00 %
11.07.2015 16:00 27,3 C 34 % 1013,0 hPa 0,0 l/m 3,2 km/h (1 Bft) W-NW 293 5 min 0,000 mm 3,0 UV-I 897 W/m 10,0 C 27,3 C 4,0 km/h (1 Bft) 0,00 %
11.07.2015 16:05 27,6 C 33 % 1012,7 hPa 0,0 l/m 0,0 km/h (0 Bft) O-NO 77 5 min 0,000 mm 3,0 UV-I 862 W/m 9,9 C 27,6 C 0,0 km/h (0 Bft) 0,00 %
11.07.2015 16:10 27,8 C 32 % 1012,8 hPa 0,0 l/m 2,9 km/h (1 Bft) W-NW 298 5 min 0,000 mm 3,0 UV-I 914 W/m 9,6 C 27,8 C 4,0 km/h (1 Bft) 0,00 %
11.07.2015 16:15 28,0 C 33 % 1012,6 hPa 0,0 l/m 0,0 km/h (0 Bft) N-NO 19 5 min 0,000 mm 3,0 UV-I 894 W/m 10,2 C 28,0 C 0,0 km/h (0 Bft) 0,00 %
11.07.2015 16:20 28,1 C 36 % 1012,7 hPa 0,0 l/m 2,2 km/h (1 Bft) N-NW 333 5 min 0,000 mm 3,0 UV-I 841 W/m 11,6 C 28,1 C 4,0 km/h (1 Bft) 0,00 %
11.07.2015 16:25 28,3 C 32 % 1012,6 hPa 0,0 l/m 4,7 km/h (1 Bft) W 269 5 min 0,000 mm 3,0 UV-I 820 W/m 10,0 C 28,3 C 7,9 km/h (2 Bft) 0,00 %
11.07.2015 16:30 28,5 C 32 % 1012,4 hPa 0,0 l/m 0,4 km/h (0 Bft) N-NW 347 5 min 0,000 mm 3,0 UV-I 820 W/m 10,2 C 28,5 C 4,0 km/h (1 Bft) 0,00 %
11.07.2015 16:35 28,6 C 34 % 1012,4 hPa 0,0 l/m 3,2 km/h (1 Bft) N-NW 328 5 min 0,000 mm 3,0 UV-I 823 W/m 11,2 C 28,6 C 4,0 km/h (1 Bft) 0,00 %
11.07.2015 16:40 28,5 C 33 % 1012,2 hPa 0,0 l/m 0,7 km/h (0 Bft) N 353 5 min 0,000 mm 3,0 UV-I 829 W/m 10,6 C 28,5 C 4,0 km/h (1 Bft) 0,00 %
11.07.2015 16:45 28,3 C 33 % 1012,2 hPa 0,0 l/m 1,8 km/h (1 Bft) O-NO 62 5 min 0,000 mm 2,0 UV-I 819 W/m 10,5 C 28,3 C 4,0 km/h (1 Bft) 0,00 %
11.07.2015 16:50 28,0 C 34 % 1012,2 hPa 0,0 l/m 3,2 km/h (1 Bft) W-SW 256 5 min 0,000 mm 2,0 UV-I 814 W/m 10,7 C 28,0 C 4,0 km/h (1 Bft) 0,00 %
11.07.2015 16:55 27,9 C 35 % 1012,2 hPa 0,0 l/m 0,0 km/h (0 Bft) NO 45 5 min 0,000 mm 2,0 UV-I 813 W/m 11,0 C 27,9 C 0,0 km/h (0 Bft) 0,00 %
11.07.2015 17:00 28,1 C 33 % 1012,3 hPa 0,0 l/m 0,0 km/h (0 Bft) N-NO 23 5 min 0,000 mm 2,0 UV-I 807 W/m 10,3 C 28,1 C 0,0 km/h (0 Bft) 0,00 %
11.07.2015 17:05 28,2 C 35 % 1012,0 hPa 0,0 l/m 1,8 km/h (1 Bft) N-NW 332 5 min 0,000 mm 2,0 UV-I 796 W/m 11,3 C 28,2 C 4,0 km/h (1 Bft) 0,00 %
11.07.2015 17:10 28,0 C 34 % 1012,1 hPa 0,0 l/m 0,0 km/h (0 Bft) N-NO 22 5 min 0,000 mm 2,0 UV-I 789 W/m 10,7 C 28,0 C 0,0 km/h (0 Bft) 0,00 %
11.07.2015 17:15 28,1 C 33 % 1012,2 hPa 0,0 l/m 1,8 km/h (1 Bft) N-NO 27 5 min 0,000 mm 2,0 UV-I 781 W/m 10,3 C 28,1 C 4,0 km/h (1 Bft) 0,00 %
11.07.2015 17:20 28,3 C 32 % 1012,0 hPa 0,0 l/m 0,4 km/h (0 Bft) NO 43 5 min 0,000 mm 2,0 UV-I 771 W/m 10,0 C 28,3 C 4,0 km/h (1 Bft) 0,00 %
11.07.2015 17:25 28,4 C 33 % 1012,0 hPa 0,0 l/m 0,0 km/h (0 Bft) N 352 5 min 0,000 mm 2,0 UV-I 759 W/m 10,6 C 28,4 C 0,0 km/h (0 Bft) 0,00 %
11.07.2015 17:30 28,3 C 34 % 1011,3 hPa 0,0 l/m 0,0 km/h (0 Bft) NO 36 5 min 0,000 mm 2,0 UV-I 742 W/m 10,9 C 28,3 C 0,0 km/h (0 Bft) 0,00 %
11.07.2015 17:35 28,2 C 34 % 1011,3 hPa 0,0 l/m 0,0 km/h (0 Bft) NO 36 5 min 0,000 mm 2,0 UV-I 727 W/m 10,8 C 28,2 C 0,0 km/h (0 Bft) 0,00 %
11.07.2015 17:40 28,2 C 34 % 1011,2 hPa 0,0 l/m 0,0 km/h (0 Bft) N-NO 29 5 min 0,000 mm 1,0 UV-I 722 W/m 10,8 C 28,2 C 0,0 km/h (0 Bft) 0,00 %
11.07.2015 17:45 28,1 C 34 % 1011,4 hPa 0,0 l/m 6,8 km/h (2 Bft) N-NW 340 5 min 0,000 mm 1,0 UV-I 684 W/m 10,7 C 28,0 C 7,9 km/h (2 Bft) 0,00 %
11.07.2015 17:50 28,0 C 35 % 1011,4 hPa 0,0 l/m 0,0 km/h (0 Bft) N-NO 26 5 min 0,000 mm 1,0 UV-I 660 W/m 11,1 C 28,0 C 0,0 km/h (0 Bft) 0,00 %
11.07.2015 17:55 28,0 C 35 % 1011,2 hPa 0,0 l/m 0,0 km/h (0 Bft) N-NO 21 5 min 0,000 mm 1,0 UV-I 647 W/m 11,1 C 28,0 C 0,0 km/h (0 Bft) 0,00 %
11.07.2015 18:00 28,1 C 35 % 1011,3 hPa 0,0 l/m 2,2 km/h (1 Bft) NW 315 5 min 0,000 mm 1,0 UV-I 630 W/m 11,2 C 28,1 C 7,9 km/h (2 Bft) 0,00 %
11.07.2015 18:05 28,1 C 36 % 1011,3 hPa 0,0 l/m 4,0 km/h (1 Bft) W-NW 297 5 min 0,000 mm 1,0 UV-I 604 W/m 11,6 C 28,1 C 7,9 km/h (2 Bft) 0,00 %
11.07.2015 18:10 28,1 C 37 % 1011,5 hPa 0,0 l/m 4,3 km/h (1 Bft) N-NW 347 5 min 0,000 mm 1,0 UV-I 578 W/m 12,0 C 28,1 C 7,9 km/h (2 Bft) 0,00 %
11.07.2015 18:15 28,1 C 36 % 1011,7 hPa 0,0 l/m 0,0 km/h (0 Bft) NO 37 5 min 0,000 mm 1,0 UV-I 533 W/m 11,6 C 28,1 C 0,0 km/h (0 Bft) 0,00 %
11.07.2015 18:20 28,1 C 36 % 1011,5 hPa 0,0 l/m 0,7 km/h (0 Bft) SW 227 5 min 0,000 mm 1,0 UV-I 487 W/m 11,6 C 28,1 C 4,0 km/h (1 Bft) 0,00 %
11.07.2015 18:25 28,0 C 36 % 1011,4 hPa 0,0 l/m 0,0 km/h (0 Bft) NO 48 5 min 0,000 mm 1,0 UV-I 461 W/m 11,5 C 28,0 C 0,0 km/h (0 Bft) 0,00 %
11.07.2015 18:30 27,9 C 36 % 1011,6 hPa 0,0 l/m 0,4 km/h (0 Bft) N 354 5 min 0,000 mm 1,0 UV-I 442 W/m 11,4 C 27,9 C 4,0 km/h (1 Bft) 0,00 %
11.07.2015 18:35 27,7 C 36 % 1011,6 hPa 0,0 l/m 0,0 km/h (0 Bft) NO 38 5 min 0,000 mm 1,0 UV-I 442 W/m 11,3 C 27,7 C 0,0 km/h (0 Bft) 0,00 %
11.07.2015 18:40 27,4 C 37 % 1011,8 hPa 0,0 l/m 1,4 km/h (1 Bft) N-NW 347 5 min 0,000 mm 1,0 UV-I 421 W/m 11,4 C 27,4 C 4,0 km/h (1 Bft) 0,00 %
11.07.2015 18:45 27,1 C 37 % 1011,8 hPa 0,0 l/m 0,0 km/h (0 Bft) N-NO 30 5 min 0,000 mm 1,0 UV-I 372 W/m 11,1 C 27,1 C 0,0 km/h (0 Bft) 0,00 %
11.07.2015 18:50 27,0 C 38 % 1011,6 hPa 0,0 l/m 0,0 km/h (0 Bft) N-NO 26 5 min 0,000 mm 1,0 UV-I 348 W/m 11,5 C 27,0 C 0,0 km/h (0 Bft) 0,00 %
11.07.2015 18:55 26,9 C 38 % 1011,7 hPa 0,0 l/m 0,0 km/h (0 Bft) NO 39 5 min 0,000 mm 1,0 UV-I 346 W/m 11,4 C 26,9 C 0,0 km/h (0 Bft) 0,00 %
11.07.2015 19:00 26,9 C 38 % 1011,7 hPa 0,0 l/m 0,0 km/h (0 Bft) NO 51 5 min 0,000 mm 1,0 UV-I 328 W/m 11,4 C 26,9 C 0,0 km/h (0 Bft) 0,00 %
11.07.2015 19:05 26,9 C 39 % 1011,8 hPa 0,0 l/m 0,0 km/h (0 Bft) NO 53 5 min 0,000 mm 1,0 UV-I 291 W/m 11,8 C 26,9 C 0,0 km/h (0 Bft) 0,00 %
11.07.2015 19:10 27,0 C 39 % 1011,8 hPa 0,0 l/m 0,0 km/h (0 Bft) NO 42 5 min 0,000 mm 1,0 UV-I 267 W/m 11,8 C 27,0 C 0,0 km/h (0 Bft) 0,00 %
11.07.2015 19:15 27,0 C 40 % 1012,1 hPa 0,0 l/m 0,0 km/h (0 Bft) O-NO 62 5 min 0,000 mm 1,0 UV-I 239 W/m 12,2 C 27,0 C 0,0 km/h (0 Bft) 0,00 %
11.07.2015 19:20 27,0 C 39 % 1012,0 hPa 0,0 l/m 0,0 km/h (0 Bft) O-NO 64 5 min 0,000 mm 1,0 UV-I 210 W/m 11,8 C 27,0 C 0,0 km/h (0 Bft) 0,00 %
11.07.2015 19:25 26,9 C 39 % 1011,8 hPa 0,0 l/m 0,0 km/h (0 Bft) NO 36 5 min 0,000 mm 1,0 UV-I 196 W/m 11,8 C 26,9 C 0,0 km/h (0 Bft) 0,00 %
11.07.2015 19:30 26,9 C 40 % 1012,0 hPa 0,0 l/m 0,0 km/h (0 Bft) NO 45 5 min 0,000 mm 1,0 UV-I 127 W/m 12,1 C 26,9 C 0,0 km/h (0 Bft) 0,00 %
11.07.2015 19:35 26,9 C 40 % 1011,8 hPa 0,0 l/m 0,0 km/h (0 Bft) N 353 0 min 0,000 mm 1,0 UV-I 102 W/m 12,1 C 26,9 C 0,0 km/h (0 Bft) 0,00 %
11.07.2015 19:40 26,9 C 39 % 1011,9 hPa 0,0 l/m 0,0 km/h (0 Bft) N-NO 23 0 min 0,000 mm 0,0 UV-I 77 W/m 11,8 C 26,9 C 0,0 km/h (0 Bft) 0,00 %
11.07.2015 19:45 26,9 C 39 % 1011,9 hPa 0,0 l/m 0,0 km/h (0 Bft) NO 50 0 min 0,000 mm 0,0 UV-I 53 W/m 11,8 C 26,9 C 0,0 km/h (0 Bft) 0,00 %
11.07.2015 19:50 26,8 C 38 % 1011,8 hPa 0,0 l/m 0,0 km/h (0 Bft) NO 49 0 min 0,000 mm 0,0 UV-I 25 W/m 11,3 C 26,8 C 0,0 km/h (0 Bft) 0,00 %
11.07.2015 19:55 26,8 C 39 % 1011,8 hPa 0,0 l/m 0,0 km/h (0 Bft) NO 52 0 min 0,000 mm 0,0 UV-I 20 W/m 11,7 C 26,8 C 0,0 km/h (0 Bft) 0,00 %
11.07.2015 20:00 26,6 C 39 % 1012,0 hPa 0,0 l/m 0,0 km/h (0 Bft) NO 49 0 min 0,000 mm 0,0 UV-I 10 W/m 11,5 C 26,6 C 0,0 km/h (0 Bft) 0,00 %
11.07.2015 20:05 26,5 C 40 % 1012,1 hPa 0,0 l/m 0,0 km/h (0 Bft) N-NO 30 0 min 0,000 mm 0,0 UV-I 10 W/m 11,8 C 26,5 C 0,0 km/h (0 Bft) 0,00 %
11.07.2015 20:10 26,3 C 44 % 1012,4 hPa 0,0 l/m 0,0 km/h (0 Bft) NO 39 0 min 0,000 mm 0,0 UV-I 13 W/m 13,1 C 26,3 C 0,0 km/h (0 Bft) 0,00 %
11.07.2015 20:15 25,8 C 43 % 1012,7 hPa 0,0 l/m 0,0 km/h (0 Bft) NO 42 0 min 0,000 mm 0,0 UV-I 12 W/m 12,3 C 25,8 C 0,0 km/h (0 Bft) 0,00 %
11.07.2015 20:20 25,3 C 47 % 1012,8 hPa 0,0 l/m 0,0 km/h (0 Bft) N-NO 30 0 min 0,000 mm 0,0 UV-I 0 W/m 13,2 C 25,3 C 0,0 km/h (0 Bft) 0,00 %
11.07.2015 20:25 24,8 C 50 % 1013,1 hPa 0,0 l/m 0,0 km/h (0 Bft) NO 37 0 min 0,000 mm 0,0 UV-I 0 W/m 13,7 C 24,8 C 0,0 km/h (0 Bft) 0,00 %
11.07.2015 20:30 24,3 C 51 % 1013,3 hPa 0,0 l/m 0,0 km/h (0 Bft) NO 46 0 min 0,000 mm 0,0 UV-I 0 W/m 13,5 C 24,3 C 0,0 km/h (0 Bft) 0,00 %
11.07.2015 20:35 23,7 C 52 % 1013,3 hPa 0,0 l/m 0,0 km/h (0 Bft) NO 46 0 min 0,000 mm 0,0 UV-I 0 W/m 13,2 C 23,7 C 0,0 km/h (0 Bft) 0,00 %
11.07.2015 20:40 23,1 C 54 % 1013,6 hPa 0,0 l/m 0,0 km/h (0 Bft) NO 54 0 min 0,000 mm 0,0 UV-I 0 W/m 13,3 C 23,1 C 0,0 km/h (0 Bft) 0,00 %
11.07.2015 20:45 22,7 C 55 % 1013,7 hPa 0,0 l/m 0,0 km/h (0 Bft) NO 43 0 min 0,000 mm 0,0 UV-I 0 W/m 13,2 C 22,7 C 0,0 km/h (0 Bft) 0,00 %
11.07.2015 20:50 22,3 C 55 % 1013,9 hPa 0,0 l/m 0,0 km/h (0 Bft) NO 41 0 min 0,000 mm 0,0 UV-I 0 W/m 12,8 C 22,3 C 0,0 km/h (0 Bft) 0,00 %
11.07.2015 20:55 22,1 C 55 % 1013,9 hPa 0,0 l/m 0,0 km/h (0 Bft) NO 37 0 min 0,000 mm 0,0 UV-I 0 W/m 12,6 C 22,1 C 0,0 km/h (0 Bft) 0,00 %
11.07.2015 21:00 21,9 C 58 % 1014,0 hPa 0,0 l/m 0,0 km/h (0 Bft) NO 46 0 min 0,000 mm 0,0 UV-I 0 W/m 13,3 C 21,9 C 0,0 km/h (0 Bft) 0,00 %
11.07.2015 21:05 21,7 C 59 % 1014,3 hPa 0,0 l/m 0,4 km/h (0 Bft) N 4 0 min 0,000 mm 0,0 UV-I 0 W/m 13,3 C 21,7 C 4,0 km/h (1 Bft) 0,00 %
11.07.2015 21:10 21,6 C 57 % 1014,6 hPa 0,0 l/m 2,2 km/h (1 Bft) N 352 0 min 0,000 mm 0,0 UV-I 0 W/m 12,7 C 21,6 C 7,9 km/h (2 Bft) 0,00 %
11.07.2015 21:15 21,6 C 57 % 1014,5 hPa 0,0 l/m 0,0 km/h (0 Bft) O-NO 71 0 min 0,000 mm 0,0 UV-I 0 W/m 12,7 C 21,6 C 0,0 km/h (0 Bft) 0,00 %
11.07.2015 21:20 21,7 C 57 % 1014,4 hPa 0,0 l/m 0,0 km/h (0 Bft) O 79 0 min 0,000 mm 0,0 UV-I 0 W/m 12,8 C 21,7 C 0,0 km/h (0 Bft) 0,00 %
11.07.2015 21:25 21,7 C 60 % 1014,5 hPa 0,0 l/m 0,0 km/h (0 Bft) N-NO 22 0 min 0,000 mm 0,0 UV-I 0 W/m 13,6 C 21,7 C 0,0 km/h (0 Bft) 0,00 %
11.07.2015 21:30 21,5 C 62 % 1014,5 hPa 0,0 l/m 0,0 km/h (0 Bft) NO 41 0 min 0,000 mm 0,0 UV-I 0 W/m 13,9 C 21,5 C 0,0 km/h (0 Bft) 0,00 %
11.07.2015 21:35 21,1 C 64 % 1014,6 hPa 0,0 l/m 0,4 km/h (0 Bft) N-NW 338 0 min 0,000 mm 0,0 UV-I 0 W/m 14,0 C 21,1 C 4,0 km/h (1 Bft) 0,00 %
11.07.2015 21:40 20,8 C 66 % 1015,0 hPa 0,0 l/m 0,0 km/h (0 Bft) N-NW 342 0 min 0,000 mm 0,0 UV-I 0 W/m 14,2 C 20,8 C 0,0 km/h (0 Bft) 0,00 %
11.07.2015 21:45 20,6 C 66 % 1015,0 hPa 0,0 l/m 0,4 km/h (0 Bft) N-NW 329 0 min 0,000 mm 0,0 UV-I 0 W/m 14,0 C 20,6 C 4,0 km/h (1 Bft) 0,00 %
11.07.2015 21:50 20,4 C 66 % 1014,7 hPa 0,0 l/m 0,0 km/h (0 Bft) N-NW 339 0 min 0,000 mm 0,0 UV-I 0 W/m 13,8 C 20,4 C 0,0 km/h (0 Bft) 0,00 %
11.07.2015 21:55 20,2 C 67 % 1015,0 hPa 0,0 l/m 0,0 km/h (0 Bft) N-NO 15 0 min 0,000 mm 0,0 UV-I 0 W/m 13,9 C 20,2 C 0,0 km/h (0 Bft) 0,00 %
11.07.2015 22:00 19,9 C 67 % 1014,9 hPa 0,0 l/m 0,0 km/h (0 Bft) N 356 0 min 0,000 mm 0,0 UV-I 0 W/m 13,6 C 19,9 C 0,0 km/h (0 Bft) 0,00 %
11.07.2015 22:05 19,8 C 68 % 1014,9 hPa 0,0 l/m 0,0 km/h (0 Bft) N-NO 13 0 min 0,000 mm 0,0 UV-I 0 W/m 13,7 C 19,8 C 0,0 km/h (0 Bft) 0,00 %
11.07.2015 22:10 19,6 C 67 % 1014,8 hPa 0,0 l/m 0,0 km/h (0 Bft) NO 49 0 min 0,000 mm 0,0 UV-I 0 W/m 13,3 C 19,6 C 0,0 km/h (0 Bft) 0,00 %
11.07.2015 22:15 19,4 C 67 % 1014,8 hPa 0,0 l/m 0,0 km/h (0 Bft) NO 46 0 min 0,000 mm 0,0 UV-I 0 W/m 13,1 C 19,4 C 0,0 km/h (0 Bft) 0,00 %
11.07.2015 22:20 19,3 C 66 % 1014,8 hPa 0,0 l/m 0,0 km/h (0 Bft) N-NO 15 0 min 0,000 mm 0,0 UV-I 0 W/m 12,8 C 19,3 C 0,0 km/h (0 Bft) 0,00 %
11.07.2015 22:25 19,2 C 66 % 1014,9 hPa 0,0 l/m 0,0 km/h (0 Bft) NO 34 0 min 0,000 mm 0,0 UV-I 0 W/m 12,7 C 19,2 C 0,0 km/h (0 Bft) 0,00 %
11.07.2015 22:30 19,1 C 66 % 1015,0 hPa 0,0 l/m 0,0 km/h (0 Bft) NO 42 0 min 0,000 mm 0,0 UV-I 0 W/m 12,6 C 19,1 C 0,0 km/h (0 Bft) 0,00 %
11.07.2015 22:35 19,0 C 66 % 1014,8 hPa 0,0 l/m 0,0 km/h (0 Bft) NO 40 0 min 0,000 mm 0,0 UV-I 0 W/m 12,5 C 19,0 C 0,0 km/h (0 Bft) 0,00 %
11.07.2015 22:40 19,0 C 67 % 1014,9 hPa 0,0 l/m 0,0 km/h (0 Bft) O-NO 60 0 min 0,000 mm 0,0 UV-I 0 W/m 12,7 C 19,0 C 0,0 km/h (0 Bft) 0,00 %
11.07.2015 22:45 18,9 C 69 % 1014,9 hPa 0,0 l/m 2,2 km/h (1 Bft) NW 305 0 min 0,000 mm 0,0 UV-I 0 W/m 13,1 C 18,9 C 4,0 km/h (1 Bft) 0,00 %
11.07.2015 22:50 18,8 C 69 % 1015,2 hPa 0,0 l/m 0,0 km/h (0 Bft) N-NO 14 0 min 0,000 mm 0,0 UV-I 0 W/m 13,0 C 18,8 C 0,0 km/h (0 Bft) 0,00 %
11.07.2015 22:55 18,7 C 69 % 1015,2 hPa 0,0 l/m 0,0 km/h (0 Bft) O-NO 58 0 min 0,000 mm 0,0 UV-I 0 W/m 12,9 C 18,7 C 0,0 km/h (0 Bft) 0,00 %
11.07.2015 23:00 18,6 C 69 % 1015,1 hPa 0,0 l/m 0,0 km/h (0 Bft) O-SO 107 0 min 0,000 mm 0,0 UV-I 0 W/m 12,8 C 18,6 C 0,0 km/h (0 Bft) 0,00 %
11.07.2015 23:05 18,5 C 69 % 1015,3 hPa 0,0 l/m 0,0 km/h (0 Bft) N 11 0 min 0,000 mm 0,0 UV-I 0 W/m 12,7 C 18,5 C 0,0 km/h (0 Bft) 0,00 %
11.07.2015 23:10 18,5 C 69 % 1015,0 hPa 0,0 l/m 0,0 km/h (0 Bft) O 88 0 min 0,000 mm 0,0 UV-I 0 W/m 12,7 C 18,5 C 0,0 km/h (0 Bft) 0,00 %
11.07.2015 23:15 18,4 C 69 % 1015,1 hPa 0,0 l/m 0,0 km/h (0 Bft) NO 54 0 min 0,000 mm 0,0 UV-I 0 W/m 12,6 C 18,4 C 0,0 km/h (0 Bft) 0,00 %
11.07.2015 23:20 18,3 C 69 % 1015,2 hPa 0,0 l/m 0,0 km/h (0 Bft) NO 54 0 min 0,000 mm 0,0 UV-I 0 W/m 12,5 C 18,3 C 0,0 km/h (0 Bft) 0,00 %
11.07.2015 23:25 18,2 C 69 % 1015,2 hPa 0,0 l/m 0,0 km/h (0 Bft) NO 34 0 min 0,000 mm 0,0 UV-I 0 W/m 12,4 C 18,2 C 0,0 km/h (0 Bft) 0,00 %
11.07.2015 23:30 18,2 C 68 % 1015,1 hPa 0,0 l/m 0,0 km/h (0 Bft) NO 46 0 min 0,000 mm 0,0 UV-I 0 W/m 12,2 C 18,2 C 0,0 km/h (0 Bft) 0,00 %
11.07.2015 23:35 18,2 C 68 % 1015,1 hPa 0,0 l/m 0,0 km/h (0 Bft) N-NW 338 0 min 0,000 mm 0,0 UV-I 0 W/m 12,2 C 18,2 C 0,0 km/h (0 Bft) 0,00 %
11.07.2015 23:40 18,2 C 68 % 1015,2 hPa 0,0 l/m 0,4 km/h (0 Bft) W-NW 292 0 min 0,000 mm 0,0 UV-I 0 W/m 12,2 C 18,2 C 4,0 km/h (1 Bft) 0,00 %
11.07.2015 23:45 18,1 C 69 % 1015,3 hPa 0,0 l/m 0,0 km/h (0 Bft) N 354 0 min 0,000 mm 0,0 UV-I 0 W/m 12,3 C 18,1 C 0,0 km/h (0 Bft) 0,00 %
11.07.2015 23:50 18,0 C 71 % 1015,2 hPa 0,0 l/m 0,0 km/h (0 Bft) W-NW 290 0 min 0,000 mm 0,0 UV-I 0 W/m 12,7 C 18,0 C 0,0 km/h (0 Bft) 0,00 %
_ Min-Zeit 05:25 13:45 17:40 - 00:00 - - - - - - 08:05 05:25 00:00 00:00
Minimum _ 8,4 C 29 % 1011,2 hPa - 0,0 km/h (0 Bft) - - - - - - 5,9 C 8,4 C 0,0 km/h (0 Bft) 0,00 %
_ Max-Zeit 16:35 05:20 00:00 00:00 08:10 - - 06:05 00:00 11:55 13:20 21:40 16:35 07:50 00:00
Maximum _ 28,6 C 94 % 1020,1 hPa 0,0 l/m 9,7 km/h
O-SO (2 Bft)
- - 5 min 0,000 mm 6,0 UV-I 1147 W/m 14,2 C 28,6 C 11,9 km/h
O-SO (2 Bft)
0,00 %
Durchschnitt _ 19,3 C 57 % 1016,0 hPa #0,0 l/m 0,8 km/h (0 Bft) O-NO - #13:25 h #0,000 mm 2,9 UV-I 575 W/m 9,2 C 19,3 C 1,7 km/h (1 Bft) 0,00 %